Year,Month,Day,Hour,Minute,Value (Times are PST for temperature in C)
2012,09,20,00,00,12.80
2012,09,20,00,01,12.80
2012,09,20,00,02,12.80
2012,09,20,00,03,12.80
2012,09,20,00,04,12.80
2012,09,20,00,05,12.80
2012,09,20,00,06,12.80
2012,09,20,00,07,12.70
2012,09,20,00,08,12.70
2012,09,20,00,09,12.70
2012,09,20,00,10,12.70
2012,09,20,00,11,12.70
2012,09,20,00,12,12.60
2012,09,20,00,13,12.60
2012,09,20,00,14,12.60
2012,09,20,00,15,12.60
2012,09,20,00,16,12.60
2012,09,20,00,17,12.60
2012,09,20,00,18,12.60
2012,09,20,00,19,12.60
2012,09,20,00,20,12.60
2012,09,20,00,21,12.50
2012,09,20,00,22,12.50
2012,09,20,00,23,12.50
2012,09,20,00,24,12.50
2012,09,20,00,25,12.50
2012,09,20,00,26,12.50
2012,09,20,00,27,12.40
2012,09,20,00,28,12.40
2012,09,20,00,29,12.40
2012,09,20,00,30,12.40
2012,09,20,00,31,12.40
2012,09,20,00,32,12.30
2012,09,20,00,33,12.30
2012,09,20,00,34,12.30
2012,09,20,00,35,12.30
2012,09,20,00,36,12.30
2012,09,20,00,37,12.30
2012,09,20,00,38,12.30
2012,09,20,00,39,12.30
2012,09,20,00,40,12.30
2012,09,20,00,41,12.30
2012,09,20,00,42,12.30
2012,09,20,00,43,12.30
2012,09,20,00,44,12.30
2012,09,20,00,45,12.30
2012,09,20,00,46,12.30
2012,09,20,00,47,12.30
2012,09,20,00,48,12.30
2012,09,20,00,49,12.30
2012,09,20,00,50,12.30
2012,09,20,00,51,12.20
2012,09,20,00,52,12.20
2012,09,20,00,53,12.20
2012,09,20,00,54,12.20
2012,09,20,00,55,12.20
2012,09,20,00,56,12.10
2012,09,20,00,57,12.10
2012,09,20,00,58,12.10
2012,09,20,00,59,12.10
2012,09,20,01,00,12.10
2012,09,20,01,01,12.00
2012,09,20,01,02,12.00
2012,09,20,01,03,12.00
2012,09,20,01,04,12.00
2012,09,20,01,05,12.00
2012,09,20,01,06,11.90
2012,09,20,01,07,11.90
2012,09,20,01,08,11.90
2012,09,20,01,09,11.90
2012,09,20,01,10,11.90
2012,09,20,01,11,11.90
2012,09,20,01,12,11.90
2012,09,20,01,13,11.80
2012,09,20,01,14,11.80
2012,09,20,01,15,11.80
2012,09,20,01,16,11.80
2012,09,20,01,17,11.80
2012,09,20,01,18,11.80
2012,09,20,01,19,11.80
2012,09,20,01,20,11.80
2012,09,20,01,21,11.80
2012,09,20,01,22,11.80
2012,09,20,01,23,11.80
2012,09,20,01,24,11.80
2012,09,20,01,25,11.80
2012,09,20,01,26,11.80
2012,09,20,01,27,11.80
2012,09,20,01,28,11.80
2012,09,20,01,29,11.80
2012,09,20,01,30,11.80
2012,09,20,01,31,11.80
2012,09,20,01,32,11.80
2012,09,20,01,33,11.80
2012,09,20,01,34,11.80
2012,09,20,01,35,11.80
2012,09,20,01,36,11.70
2012,09,20,01,37,11.70
2012,09,20,01,38,11.70
2012,09,20,01,39,11.70
2012,09,20,01,40,11.60
2012,09,20,01,41,11.60
2012,09,20,01,42,11.60
2012,09,20,01,43,11.60
2012,09,20,01,44,11.60
2012,09,20,01,45,11.60
2012,09,20,01,46,11.60
2012,09,20,01,47,11.60
2012,09,20,01,48,11.60
2012,09,20,01,49,11.70
2012,09,20,01,50,11.70
2012,09,20,01,51,11.70
2012,09,20,01,52,11.70
2012,09,20,01,53,11.70
2012,09,20,01,54,11.70
2012,09,20,01,55,11.70
2012,09,20,01,56,11.70
2012,09,20,01,57,11.70
2012,09,20,01,58,11.70
2012,09,20,01,59,11.70
2012,09,20,02,00,11.60
2012,09,20,02,01,11.60
2012,09,20,02,02,11.60
2012,09,20,02,03,11.60
2012,09,20,02,04,11.60
2012,09,20,02,05,11.60
2012,09,20,02,06,11.60
2012,09,20,02,07,11.60
2012,09,20,02,08,11.60
2012,09,20,02,09,11.60
2012,09,20,02,10,11.50
2012,09,20,02,11,11.40
2012,09,20,02,12,11.40
2012,09,20,02,13,11.40
2012,09,20,02,14,11.40
2012,09,20,02,15,11.40
2012,09,20,02,16,11.30
2012,09,20,02,17,11.30
2012,09,20,02,18,11.30
2012,09,20,02,19,11.30
2012,09,20,02,20,11.30
2012,09,20,02,21,11.20
2012,09,20,02,22,11.20
2012,09,20,02,23,11.20
2012,09,20,02,24,11.20
2012,09,20,02,25,11.20
2012,09,20,02,26,11.20
2012,09,20,02,27,11.20
2012,09,20,02,28,11.20
2012,09,20,02,29,11.10
2012,09,20,02,30,11.10
2012,09,20,02,31,11.10
2012,09,20,02,32,11.10
2012,09,20,02,33,11.10
2012,09,20,02,34,11.10
2012,09,20,02,35,11.10
2012,09,20,02,36,11.10
2012,09,20,02,37,11.00
2012,09,20,02,38,10.90
2012,09,20,02,39,10.90
2012,09,20,02,40,10.90
2012,09,20,02,41,10.90
2012,09,20,02,42,10.90
2012,09,20,02,43,10.90
2012,09,20,02,44,10.90
2012,09,20,02,45,10.90
2012,09,20,02,46,10.90
2012,09,20,02,47,10.90
2012,09,20,02,48,10.90
2012,09,20,02,49,10.90
2012,09,20,02,50,10.90
2012,09,20,02,51,10.90
2012,09,20,02,52,10.90
2012,09,20,02,53,10.90
2012,09,20,02,54,10.90
2012,09,20,02,55,10.80
2012,09,20,02,56,10.80
2012,09,20,02,57,10.80
2012,09,20,02,58,10.80
2012,09,20,02,59,10.80
2012,09,20,03,00,10.70
2012,09,20,03,01,10.70
2012,09,20,03,02,10.70
2012,09,20,03,03,10.70
2012,09,20,03,04,10.70
2012,09,20,03,05,10.70
2012,09,20,03,06,10.70
2012,09,20,03,07,10.70
2012,09,20,03,08,10.70
2012,09,20,03,09,10.70
2012,09,20,03,10,10.70
2012,09,20,03,11,10.70
2012,09,20,03,12,10.70
2012,09,20,03,13,10.70
2012,09,20,03,14,10.70
2012,09,20,03,15,10.70
2012,09,20,03,16,10.70
2012,09,20,03,17,10.70
2012,09,20,03,18,10.70
2012,09,20,03,19,10.70
2012,09,20,03,20,10.70
2012,09,20,03,21,10.70
2012,09,20,03,22,10.70
2012,09,20,03,23,10.60
2012,09,20,03,24,10.60
2012,09,20,03,25,10.60
2012,09,20,03,26,10.60
2012,09,20,03,27,10.60
2012,09,20,03,28,10.60
2012,09,20,03,29,10.60
2012,09,20,03,30,10.60
2012,09,20,03,31,10.50
2012,09,20,03,32,10.40
2012,09,20,03,33,10.40
2012,09,20,03,34,10.40
2012,09,20,03,35,10.40
2012,09,20,03,36,10.40
2012,09,20,03,37,10.40
2012,09,20,03,38,10.40
2012,09,20,03,39,10.40
2012,09,20,03,40,10.40
2012,09,20,03,41,10.40
2012,09,20,03,42,10.30
2012,09,20,03,43,10.30
2012,09,20,03,44,10.30
2012,09,20,03,45,10.30
2012,09,20,03,46,10.30
2012,09,20,03,47,10.30
2012,09,20,03,48,10.30
2012,09,20,03,49,10.40
2012,09,20,03,50,10.40
2012,09,20,03,51,10.40
2012,09,20,03,52,10.40
2012,09,20,03,53,10.40
2012,09,20,03,54,10.40
2012,09,20,03,55,10.40
2012,09,20,03,56,10.40
2012,09,20,03,57,10.40
2012,09,20,03,58,10.40
2012,09,20,03,59,10.60
2012,09,20,04,00,10.60
2012,09,20,04,01,10.60
2012,09,20,04,02,10.60
2012,09,20,04,03,10.60
2012,09,20,04,04,10.60
2012,09,20,04,05,10.60
2012,09,20,04,06,10.60
2012,09,20,04,07,10.60
2012,09,20,04,08,10.70
2012,09,20,04,09,10.70
2012,09,20,04,10,10.70
2012,09,20,04,11,10.70
2012,09,20,04,12,10.70
2012,09,20,04,13,10.70
2012,09,20,04,14,10.60
2012,09,20,04,15,10.60
2012,09,20,04,16,10.60
2012,09,20,04,17,10.60
2012,09,20,04,18,10.60
2012,09,20,04,19,10.60
2012,09,20,04,20,10.60
2012,09,20,04,21,10.60
2012,09,20,04,22,10.60
2012,09,20,04,23,10.50
2012,09,20,04,24,10.40
2012,09,20,04,25,10.40
2012,09,20,04,26,10.40
2012,09,20,04,27,10.40
2012,09,20,04,28,10.40
2012,09,20,04,29,10.40
2012,09,20,04,30,10.30
2012,09,20,04,31,10.30
2012,09,20,04,32,10.30
2012,09,20,04,33,10.20
2012,09,20,04,34,10.20
2012,09,20,04,35,10.10
2012,09,20,04,36,10.10
2012,09,20,04,37,10.10
2012,09,20,04,38,10.10
2012,09,20,04,39,10.10
2012,09,20,04,40,10.10
2012,09,20,04,41,10.10
2012,09,20,04,42,10.10
2012,09,20,04,43,10.10
2012,09,20,04,44,10.10
2012,09,20,04,45,10.10
2012,09,20,04,46,10.10
2012,09,20,04,47,10.10
2012,09,20,04,48,10.10
2012,09,20,04,49,10.10
2012,09,20,04,50,10.10
2012,09,20,04,51,10.10
2012,09,20,04,52,10.10
2012,09,20,04,53,10.10
2012,09,20,04,54,10.10
2012,09,20,04,55,10.10
2012,09,20,04,56,10.10
2012,09,20,04,57,10.10
2012,09,20,04,58,10.10
2012,09,20,04,59,10.10
2012,09,20,05,00,10.10
2012,09,20,05,01,10.00
2012,09,20,05,02,9.90
2012,09,20,05,03,9.90
2012,09,20,05,04,9.90
2012,09,20,05,05,9.90
2012,09,20,05,06,9.90
2012,09,20,05,07,9.90
2012,09,20,05,08,9.90
2012,09,20,05,09,9.90
2012,09,20,05,10,9.80
2012,09,20,05,11,9.80
2012,09,20,05,12,9.80
2012,09,20,05,13,9.80
2012,09,20,05,14,9.80
2012,09,20,05,15,9.80
2012,09,20,05,16,9.90
2012,09,20,05,17,9.90
2012,09,20,05,18,9.90
2012,09,20,05,19,9.90
2012,09,20,05,20,9.90
2012,09,20,05,21,9.90
2012,09,20,05,22,9.90
2012,09,20,05,23,9.90
2012,09,20,05,24,9.90
2012,09,20,05,25,9.90
2012,09,20,05,26,9.90
2012,09,20,05,27,9.90
2012,09,20,05,28,9.90
2012,09,20,05,29,9.90
2012,09,20,05,30,9.90
2012,09,20,05,31,9.90
2012,09,20,05,32,9.90
2012,09,20,05,33,9.90
2012,09,20,05,34,9.90
2012,09,20,05,35,9.90
2012,09,20,05,36,9.90
2012,09,20,05,37,9.90
2012,09,20,05,38,9.90
2012,09,20,05,39,9.80
2012,09,20,05,40,9.80
2012,09,20,05,41,9.80
2012,09,20,05,42,9.80
2012,09,20,05,43,9.80
2012,09,20,05,44,9.80
2012,09,20,05,45,9.80
2012,09,20,05,46,9.80
2012,09,20,05,47,9.80
2012,09,20,05,48,9.80
2012,09,20,05,49,9.80
2012,09,20,05,50,9.80
2012,09,20,05,51,9.70
2012,09,20,05,52,9.70
2012,09,20,05,53,9.70
2012,09,20,05,54,9.70
2012,09,20,05,55,9.70
2012,09,20,05,56,9.70
2012,09,20,05,57,9.70
2012,09,20,05,58,9.70
2012,09,20,05,59,9.70
2012,09,20,06,00,9.70
2012,09,20,06,01,9.70
2012,09,20,06,02,9.70
2012,09,20,06,03,9.70
2012,09,20,06,04,9.70
2012,09,20,06,05,9.70
2012,09,20,06,06,9.70
2012,09,20,06,07,9.70
2012,09,20,06,08,9.70
2012,09,20,06,09,9.70
2012,09,20,06,10,9.70
2012,09,20,06,11,9.70
2012,09,20,06,12,9.70
2012,09,20,06,13,9.70
2012,09,20,06,14,9.70
2012,09,20,06,15,9.70
2012,09,20,06,16,9.70
2012,09,20,06,17,9.70
2012,09,20,06,18,9.70
2012,09,20,06,19,9.70
2012,09,20,06,20,9.70
2012,09,20,06,21,9.70
2012,09,20,06,22,9.70
2012,09,20,06,23,9.70
2012,09,20,06,24,9.70
2012,09,20,06,25,9.70
2012,09,20,06,26,9.70
2012,09,20,06,27,9.70
2012,09,20,06,28,9.80
2012,09,20,06,29,9.80
2012,09,20,06,30,9.80
2012,09,20,06,31,9.80
2012,09,20,06,32,9.80
2012,09,20,06,33,9.80
2012,09,20,06,34,9.80
2012,09,20,06,35,9.80
2012,09,20,06,36,9.80
2012,09,20,06,37,9.80
2012,09,20,06,38,9.80
2012,09,20,06,39,9.80
2012,09,20,06,40,9.70
2012,09,20,06,41,9.80
2012,09,20,06,42,9.80
2012,09,20,06,43,9.80
2012,09,20,06,44,9.80
2012,09,20,06,45,9.80
2012,09,20,06,46,9.80
2012,09,20,06,47,9.90
2012,09,20,06,48,9.90
2012,09,20,06,49,9.90
2012,09,20,06,50,10.00
2012,09,20,06,51,10.10
2012,09,20,06,52,10.10
2012,09,20,06,53,10.10
2012,09,20,06,54,10.10
2012,09,20,06,55,10.10
2012,09,20,06,56,10.10
2012,09,20,06,57,10.10
2012,09,20,06,58,10.10
2012,09,20,06,59,10.10
2012,09,20,07,00,10.10
2012,09,20,07,01,10.10
2012,09,20,07,02,10.10
2012,09,20,07,03,10.10
2012,09,20,07,04,10.10
2012,09,20,07,05,10.10
2012,09,20,07,06,10.00
2012,09,20,07,07,9.90
2012,09,20,07,08,9.90
2012,09,20,07,09,9.90
2012,09,20,07,10,9.90
2012,09,20,07,11,9.90
2012,09,20,07,12,9.90
2012,09,20,07,13,9.90
2012,09,20,07,14,9.90
2012,09,20,07,15,9.90
2012,09,20,07,16,9.90
2012,09,20,07,17,9.90
2012,09,20,07,18,9.90
2012,09,20,07,19,9.90
2012,09,20,07,20,9.90
2012,09,20,07,21,9.90
2012,09,20,07,22,9.90
2012,09,20,07,23,9.90
2012,09,20,07,24,9.90
2012,09,20,07,25,9.90
2012,09,20,07,26,10.00
2012,09,20,07,27,10.10
2012,09,20,07,28,10.10
2012,09,20,07,29,10.10
2012,09,20,07,30,10.10
2012,09,20,07,31,10.10
2012,09,20,07,32,10.10
2012,09,20,07,33,10.10
2012,09,20,07,34,10.10
2012,09,20,07,35,10.10
2012,09,20,07,36,10.10
2012,09,20,07,37,10.10
2012,09,20,07,38,10.10
2012,09,20,07,39,10.10
2012,09,20,07,40,10.10
2012,09,20,07,41,10.10
2012,09,20,07,42,10.10
2012,09,20,07,43,10.10
2012,09,20,07,44,10.10
2012,09,20,07,45,10.10
2012,09,20,07,46,10.10
2012,09,20,07,47,10.10
2012,09,20,07,48,10.10
2012,09,20,07,49,10.10
2012,09,20,07,50,10.10
2012,09,20,07,51,10.10
2012,09,20,07,52,10.10
2012,09,20,07,53,10.10
2012,09,20,07,54,10.20
2012,09,20,07,55,10.20
2012,09,20,07,56,10.20
2012,09,20,07,57,10.20
2012,09,20,07,58,10.20
2012,09,20,07,59,10.20
2012,09,20,08,00,10.20
2012,09,20,08,01,10.20
2012,09,20,08,02,10.20
2012,09,20,08,03,10.20
2012,09,20,08,04,10.30
2012,09,20,08,05,10.30
2012,09,20,08,06,10.30
2012,09,20,08,07,10.40
2012,09,20,08,08,10.40
2012,09,20,08,09,10.40
2012,09,20,08,10,10.40
2012,09,20,08,11,10.40
2012,09,20,08,12,10.50
2012,09,20,08,13,10.60
2012,09,20,08,14,10.60
2012,09,20,08,15,10.60
2012,09,20,08,16,10.60
2012,09,20,08,17,10.70
2012,09,20,08,18,10.80
2012,09,20,08,19,10.90
2012,09,20,08,20,11.00
2012,09,20,08,21,11.10
2012,09,20,08,22,11.10
2012,09,20,08,23,11.20
2012,09,20,08,24,11.20
2012,09,20,08,25,11.30
2012,09,20,08,26,11.30
2012,09,20,08,27,11.40
2012,09,20,08,28,11.40
2012,09,20,08,29,11.50
2012,09,20,08,30,11.60
2012,09,20,08,31,11.60
2012,09,20,08,32,11.60
2012,09,20,08,33,11.60
2012,09,20,08,34,11.70
2012,09,20,08,35,11.70
2012,09,20,08,36,11.80
2012,09,20,08,37,11.80
2012,09,20,08,38,11.90
2012,09,20,08,39,12.00
2012,09,20,08,40,12.00
2012,09,20,08,41,12.10
2012,09,20,08,42,12.20
2012,09,20,08,43,12.20
2012,09,20,08,44,12.30
2012,09,20,08,45,12.30
2012,09,20,08,46,12.40
2012,09,20,08,47,12.50
2012,09,20,08,48,12.60
2012,09,20,08,49,12.70
2012,09,20,08,50,12.80
2012,09,20,08,51,12.80
2012,09,20,08,52,12.90
2012,09,20,08,53,13.00
2012,09,20,08,54,13.10
2012,09,20,08,55,13.20
2012,09,20,08,56,13.30
2012,09,20,08,57,13.30
2012,09,20,08,58,13.40
2012,09,20,08,59,13.50
2012,09,20,09,00,13.60
2012,09,20,09,01,13.70
2012,09,20,09,02,13.70
2012,09,20,09,03,13.80
2012,09,20,09,04,13.90
2012,09,20,09,05,13.90
2012,09,20,09,06,14.00
2012,09,20,09,07,14.00
2012,09,20,09,08,14.00
2012,09,20,09,09,14.10
2012,09,20,09,10,14.20
2012,09,20,09,11,14.20
2012,09,20,09,12,14.40
2012,09,20,09,13,14.50
2012,09,20,09,14,14.60
2012,09,20,09,15,14.60
2012,09,20,09,16,14.70
2012,09,20,09,17,14.80
2012,09,20,09,18,14.80
2012,09,20,09,19,14.80
2012,09,20,09,20,14.90
2012,09,20,09,21,15.00
2012,09,20,09,22,15.10
2012,09,20,09,23,15.20
2012,09,20,09,24,15.20
2012,09,20,09,25,15.30
2012,09,20,09,26,15.30
2012,09,20,09,27,15.30
2012,09,20,09,28,15.40
2012,09,20,09,29,15.40
2012,09,20,09,30,15.50
2012,09,20,09,31,15.60
2012,09,20,09,32,15.70
2012,09,20,09,33,15.80
2012,09,20,09,34,15.80
2012,09,20,09,35,15.90
2012,09,20,09,36,16.00
2012,09,20,09,37,16.10
2012,09,20,09,38,16.30
2012,09,20,09,39,16.30
2012,09,20,09,40,16.40
2012,09,20,09,41,16.40
2012,09,20,09,42,16.50
2012,09,20,09,43,16.60
2012,09,20,09,44,16.60
2012,09,20,09,45,16.70
2012,09,20,09,46,16.80
2012,09,20,09,47,16.90
2012,09,20,09,48,17.00
2012,09,20,09,49,17.10
2012,09,20,09,50,17.20
2012,09,20,09,51,17.30
2012,09,20,09,52,17.30
2012,09,20,09,53,17.40
2012,09,20,09,54,17.30
2012,09,20,09,55,17.30
2012,09,20,09,56,17.30
2012,09,20,09,57,17.40
2012,09,20,09,58,17.40
2012,09,20,09,59,17.50
2012,09,20,10,00,17.50
2012,09,20,10,01,17.50
2012,09,20,10,02,17.50
2012,09,20,10,03,17.60
2012,09,20,10,04,17.70
2012,09,20,10,05,17.70
2012,09,20,10,06,17.80
2012,09,20,10,07,17.90
2012,09,20,10,08,17.90
2012,09,20,10,09,17.90
2012,09,20,10,10,17.90
2012,09,20,10,11,17.90
2012,09,20,10,12,17.90
2012,09,20,10,13,17.90
2012,09,20,10,14,17.90
2012,09,20,10,15,17.90
2012,09,20,10,16,17.80
2012,09,20,10,17,17.80
2012,09,20,10,18,17.90
2012,09,20,10,19,17.90
2012,09,20,10,20,18.00
2012,09,20,10,21,18.20
2012,09,20,10,22,18.20
2012,09,20,10,23,18.20
2012,09,20,10,24,18.30
2012,09,20,10,25,18.30
2012,09,20,10,26,18.40
2012,09,20,10,27,18.30
2012,09,20,10,28,18.30
2012,09,20,10,29,18.40
2012,09,20,10,30,18.40
2012,09,20,10,31,18.40
2012,09,20,10,32,18.50
2012,09,20,10,33,18.50
2012,09,20,10,34,18.40
2012,09,20,10,35,18.30
2012,09,20,10,36,18.20
2012,09,20,10,37,18.30
2012,09,20,10,38,18.40
2012,09,20,10,39,18.40
2012,09,20,10,40,18.50
2012,09,20,10,41,18.50
2012,09,20,10,42,18.60
2012,09,20,10,43,18.60
2012,09,20,10,44,18.60
2012,09,20,10,45,18.50
2012,09,20,10,46,18.50
2012,09,20,10,47,18.60
2012,09,20,10,48,18.60
2012,09,20,10,49,18.60
2012,09,20,10,50,18.50
2012,09,20,10,51,18.50
2012,09,20,10,52,18.60
2012,09,20,10,53,18.60
2012,09,20,10,54,18.60
2012,09,20,10,55,18.50
2012,09,20,10,56,18.40
2012,09,20,10,57,18.40
2012,09,20,10,58,18.40
2012,09,20,10,59,18.20
2012,09,20,11,00,18.20
2012,09,20,11,01,18.20
2012,09,20,11,02,18.20
2012,09,20,11,03,18.20
2012,09,20,11,04,18.20
2012,09,20,11,05,18.20
2012,09,20,11,06,18.10
2012,09,20,11,07,18.00
2012,09,20,11,08,18.00
2012,09,20,11,09,18.20
2012,09,20,11,10,18.20
2012,09,20,11,11,18.20
2012,09,20,11,12,18.20
2012,09,20,11,13,18.20
2012,09,20,11,14,18.30
2012,09,20,11,15,18.40
2012,09,20,11,16,18.40
2012,09,20,11,17,18.40
2012,09,20,11,18,18.40
2012,09,20,11,19,18.50
2012,09,20,11,20,18.50
2012,09,20,11,21,18.50
2012,09,20,11,22,18.50
2012,09,20,11,23,18.40
2012,09,20,11,24,18.50
2012,09,20,11,25,18.50
2012,09,20,11,26,18.30
2012,09,20,11,27,18.30
2012,09,20,11,28,18.30
2012,09,20,11,29,18.10
2012,09,20,11,30,17.90
2012,09,20,11,31,17.80
2012,09,20,11,32,17.80
2012,09,20,11,33,17.80
2012,09,20,11,34,17.90
2012,09,20,11,35,17.90
2012,09,20,11,36,18.00
2012,09,20,11,37,18.00
2012,09,20,11,38,17.90
2012,09,20,11,39,17.80
2012,09,20,11,40,17.70
2012,09,20,11,41,17.60
2012,09,20,11,42,17.70
2012,09,20,11,43,17.70
2012,09,20,11,44,17.80
2012,09,20,11,45,17.80
2012,09,20,11,46,17.80
2012,09,20,11,47,17.80
2012,09,20,11,48,17.70
2012,09,20,11,49,17.80
2012,09,20,11,50,17.90
2012,09,20,11,51,17.90
2012,09,20,11,52,17.90
2012,09,20,11,53,17.90
2012,09,20,11,54,17.80
2012,09,20,11,55,17.80
2012,09,20,11,56,17.80
2012,09,20,11,57,17.90
2012,09,20,11,58,18.10
2012,09,20,11,59,18.20
2012,09,20,12,00,18.40
2012,09,20,12,01,18.50
2012,09,20,12,02,18.60
2012,09,20,12,03,18.70
2012,09,20,12,04,18.70
2012,09,20,12,05,18.70
2012,09,20,12,06,18.60
2012,09,20,12,07,18.50
2012,09,20,12,08,18.40
2012,09,20,12,09,18.50
2012,09,20,12,10,18.60
2012,09,20,12,11,18.50
2012,09,20,12,12,18.40
2012,09,20,12,13,18.40
2012,09,20,12,14,18.50
2012,09,20,12,15,18.60
2012,09,20,12,16,18.70
2012,09,20,12,17,18.90
2012,09,20,12,18,18.90
2012,09,20,12,19,18.90
2012,09,20,12,20,19.10
2012,09,20,12,21,19.10
2012,09,20,12,22,19.10
2012,09,20,12,23,19.10
2012,09,20,12,24,19.30
2012,09,20,12,25,19.40
2012,09,20,12,26,19.60
2012,09,20,12,27,19.80
2012,09,20,12,28,19.90
2012,09,20,12,29,19.80
2012,09,20,12,30,19.70
2012,09,20,12,31,19.60
2012,09,20,12,32,19.60
2012,09,20,12,33,19.80
2012,09,20,12,34,19.90
2012,09,20,12,35,20.10
2012,09,20,12,36,20.20
2012,09,20,12,37,20.20
2012,09,20,12,38,20.20
2012,09,20,12,39,20.00
2012,09,20,12,40,19.90
2012,09,20,12,41,19.90
2012,09,20,12,42,19.90
2012,09,20,12,43,19.90
2012,09,20,12,44,20.10
2012,09,20,12,45,20.20
2012,09,20,12,46,20.20
2012,09,20,12,47,20.30
2012,09,20,12,48,20.40
2012,09,20,12,49,20.50
2012,09,20,12,50,20.40
2012,09,20,12,51,20.50
2012,09,20,12,52,20.60
2012,09,20,12,53,20.70
2012,09,20,12,54,20.70
2012,09,20,12,55,20.50
2012,09,20,12,56,20.40
2012,09,20,12,57,20.30
2012,09,20,12,58,20.40
2012,09,20,12,59,20.50
2012,09,20,13,00,20.60
2012,09,20,13,01,20.70
2012,09,20,13,02,20.80
2012,09,20,13,03,20.90
2012,09,20,13,04,21.00
2012,09,20,13,05,21.20
2012,09,20,13,06,21.30
2012,09,20,13,07,21.30
2012,09,20,13,08,21.30
2012,09,20,13,09,21.20
2012,09,20,13,10,21.00
2012,09,20,13,11,20.90
2012,09,20,13,12,20.90
2012,09,20,13,13,20.90
2012,09,20,13,14,20.70
2012,09,20,13,15,20.50
2012,09,20,13,16,20.50
2012,09,20,13,17,20.50
2012,09,20,13,18,20.50
2012,09,20,13,19,20.60
2012,09,20,13,20,20.60
2012,09,20,13,21,20.60
2012,09,20,13,22,20.60
2012,09,20,13,23,20.60
2012,09,20,13,24,20.60
2012,09,20,13,25,20.60
2012,09,20,13,26,20.60
2012,09,20,13,27,20.70
2012,09,20,13,28,20.80
2012,09,20,13,29,21.00
2012,09,20,13,30,21.00
2012,09,20,13,31,21.00
2012,09,20,13,32,21.00
2012,09,20,13,33,21.10
2012,09,20,13,34,21.10
2012,09,20,13,35,21.20
2012,09,20,13,36,21.10
2012,09,20,13,37,20.90
2012,09,20,13,38,20.70
2012,09,20,13,39,20.60
2012,09,20,13,40,20.40
2012,09,20,13,41,20.20
2012,09,20,13,42,20.20
2012,09,20,13,43,20.20
2012,09,20,13,44,20.20
2012,09,20,13,45,20.20
2012,09,20,13,46,20.20
2012,09,20,13,47,20.20
2012,09,20,13,48,20.20
2012,09,20,13,49,20.30
2012,09,20,13,50,20.50
2012,09,20,13,51,20.60
2012,09,20,13,52,20.80
2012,09,20,13,53,20.90
2012,09,20,13,54,21.10
2012,09,20,13,55,21.30
2012,09,20,13,56,21.40
2012,09,20,13,57,21.50
2012,09,20,13,58,21.60
2012,09,20,13,59,21.60
2012,09,20,14,00,21.80
2012,09,20,14,01,21.90
2012,09,20,14,02,21.90
2012,09,20,14,03,21.70
2012,09,20,14,04,21.40
2012,09,20,14,05,21.30
2012,09,20,14,06,21.10
2012,09,20,14,07,21.00
2012,09,20,14,08,21.00
2012,09,20,14,09,20.90
2012,09,20,14,10,20.90
2012,09,20,14,11,20.80
2012,09,20,14,12,20.70
2012,09,20,14,13,20.70
2012,09,20,14,14,20.80
2012,09,20,14,15,20.90
2012,09,20,14,16,21.00
2012,09,20,14,17,21.10
2012,09,20,14,18,21.10
2012,09,20,14,19,21.20
2012,09,20,14,20,21.30
2012,09,20,14,21,21.50
2012,09,20,14,22,21.60
2012,09,20,14,23,21.70
2012,09,20,14,24,21.80
2012,09,20,14,25,21.80
2012,09,20,14,26,21.70
2012,09,20,14,27,21.50
2012,09,20,14,28,21.40
2012,09,20,14,29,21.40
2012,09,20,14,30,21.40
2012,09,20,14,31,21.40
2012,09,20,14,32,21.30
2012,09,20,14,33,21.20
2012,09,20,14,34,21.10
2012,09,20,14,35,21.00
2012,09,20,14,36,21.10
2012,09,20,14,37,21.00
2012,09,20,14,38,20.80
2012,09,20,14,39,20.70
2012,09,20,14,40,20.70
2012,09,20,14,41,20.60
2012,09,20,14,42,20.70
2012,09,20,14,43,20.70
2012,09,20,14,44,20.80
2012,09,20,14,45,20.90
2012,09,20,14,46,20.90
2012,09,20,14,47,21.00
2012,09,20,14,48,21.10
2012,09,20,14,49,21.30
2012,09,20,14,50,21.20
2012,09,20,14,51,21.10
2012,09,20,14,52,21.00
2012,09,20,14,53,20.90
2012,09,20,14,54,20.90
2012,09,20,14,55,21.00
2012,09,20,14,56,21.20
2012,09,20,14,57,21.30
2012,09,20,14,58,21.30
2012,09,20,14,59,21.30
2012,09,20,15,00,21.40
2012,09,20,15,01,21.50
2012,09,20,15,02,21.60
2012,09,20,15,03,21.80
2012,09,20,15,04,21.80
2012,09,20,15,05,21.90
2012,09,20,15,06,22.00
2012,09,20,15,07,22.10
2012,09,20,15,08,22.10
2012,09,20,15,09,22.20
2012,09,20,15,10,22.10
2012,09,20,15,11,22.00
2012,09,20,15,12,21.90
2012,09,20,15,13,21.70
2012,09,20,15,14,21.60
2012,09,20,15,15,21.60
2012,09,20,15,16,21.60
2012,09,20,15,17,21.60
2012,09,20,15,18,21.70
2012,09,20,15,19,21.80
2012,09,20,15,20,21.90
2012,09,20,15,21,21.80
2012,09,20,15,22,21.70
2012,09,20,15,23,21.70
2012,09,20,15,24,21.80
2012,09,20,15,25,21.90
2012,09,20,15,26,22.10
2012,09,20,15,27,22.20
2012,09,20,15,28,22.20
2012,09,20,15,29,22.20
2012,09,20,15,30,22.30
2012,09,20,15,31,22.30
2012,09,20,15,32,22.30
2012,09,20,15,33,22.20
2012,09,20,15,34,22.10
2012,09,20,15,35,22.10
2012,09,20,15,36,22.20
2012,09,20,15,37,22.30
2012,09,20,15,38,22.40
2012,09,20,15,39,22.50
2012,09,20,15,40,22.60
2012,09,20,15,41,22.60
2012,09,20,15,42,22.60
2012,09,20,15,43,22.60
2012,09,20,15,44,22.60
2012,09,20,15,45,22.60
2012,09,20,15,46,22.70
2012,09,20,15,47,22.70
2012,09,20,15,48,22.80
2012,09,20,15,49,22.80
2012,09,20,15,50,22.90
2012,09,20,15,51,22.90
2012,09,20,15,52,23.00
2012,09,20,15,53,23.10
2012,09,20,15,54,23.20
2012,09,20,15,55,23.20
2012,09,20,15,56,23.30
2012,09,20,15,57,23.30
2012,09,20,15,58,23.30
2012,09,20,15,59,23.30
2012,09,20,16,00,23.20
2012,09,20,16,01,23.10
2012,09,20,16,02,23.00
2012,09,20,16,03,22.90
2012,09,20,16,04,22.80
2012,09,20,16,05,22.70
2012,09,20,16,06,22.60
2012,09,20,16,07,22.50
2012,09,20,16,08,22.50
2012,09,20,16,09,22.50
2012,09,20,16,10,22.50
2012,09,20,16,11,22.60
2012,09,20,16,12,22.70
2012,09,20,16,13,22.80
2012,09,20,16,14,22.90
2012,09,20,16,15,22.90
2012,09,20,16,16,23.10
2012,09,20,16,17,23.10
2012,09,20,16,18,23.20
2012,09,20,16,19,23.30
2012,09,20,16,20,23.30
2012,09,20,16,21,23.40
2012,09,20,16,22,23.50
2012,09,20,16,23,23.60
2012,09,20,16,24,23.60
2012,09,20,16,25,23.60
2012,09,20,16,26,23.60
2012,09,20,16,27,23.60
2012,09,20,16,28,23.60
2012,09,20,16,29,23.60
2012,09,20,16,30,23.60
2012,09,20,16,31,23.60
2012,09,20,16,32,23.60
2012,09,20,16,33,23.50
2012,09,20,16,34,23.40
2012,09,20,16,35,23.50
2012,09,20,16,36,23.60
2012,09,20,16,37,23.60
2012,09,20,16,38,23.60
2012,09,20,16,39,23.60
2012,09,20,16,40,23.70
2012,09,20,16,41,23.70
2012,09,20,16,42,23.70
2012,09,20,16,43,23.70
2012,09,20,16,44,23.70
2012,09,20,16,45,23.70
2012,09,20,16,46,23.70
2012,09,20,16,47,23.70
2012,09,20,16,48,23.70
2012,09,20,16,49,23.70
2012,09,20,16,50,23.70
2012,09,20,16,51,23.80
2012,09,20,16,52,23.80
2012,09,20,16,53,23.80
2012,09,20,16,54,23.80
2012,09,20,16,55,23.90
2012,09,20,16,56,23.90
2012,09,20,16,57,23.80
2012,09,20,16,58,23.80
2012,09,20,16,59,23.70
2012,09,20,17,00,23.60
2012,09,20,17,01,23.40
2012,09,20,17,02,23.30
2012,09,20,17,03,23.30
2012,09,20,17,04,23.20
2012,09,20,17,05,23.00
2012,09,20,17,06,22.90
2012,09,20,17,07,22.80
2012,09,20,17,08,22.80
2012,09,20,17,09,22.80
2012,09,20,17,10,22.70
2012,09,20,17,11,22.60
2012,09,20,17,12,22.60
2012,09,20,17,13,22.50
2012,09,20,17,14,22.50
2012,09,20,17,15,22.50
2012,09,20,17,16,22.40
2012,09,20,17,17,22.40
2012,09,20,17,18,22.30
2012,09,20,17,19,22.20
2012,09,20,17,20,22.10
2012,09,20,17,21,22.10
2012,09,20,17,22,22.10
2012,09,20,17,23,22.10
2012,09,20,17,24,22.00